DRAUGEN current weather conditions

sailwx.info

Wind from 230 at 33 knots

Air temperature 7.0° C
Visibility: greater than 1.2 NM
Dewpoint 7.0° C
Present weather: Light rain.

Last reported at 2015-Jan-27 15:10 UTC.
Time now 2015-Jan-27 16:58 UTC

Location: N 64°22' E 007°47'.
View on Google Maps.

See reports from other nearby stations

  
Tides and Currents Weather Stations Pressure Air Temp Water Temp Dewpoint Dewpoint Depression Visibility Wind Speed Wind Dir Waves Ship Positions
date/time (UTC)wind fromknots sea level pressurealtimeterstation pressurevisibilityair tempwater tempwave heightnotes
2015-Jan-27 15:10 230 33 1.2 7.0 Light rain.
2015-Jan-27 14:50 230 33 7.0
2015-Jan-27 14:20 220 34 7.0
2015-Jan-27 13:50 220 36 7.0
2015-Jan-27 13:20 220 31 7.0
2015-Jan-27 12:50 220 27 6.0
2015-Jan-27 12:10 220 27 4.3 6.0 Light rain.
2015-Jan-27 11:50 220 26 6.0
2015-Jan-27 11:20 230 26 6.0
2015-Jan-27 10:50 5.0
2015-Jan-27 10:20 250 27 4.0
2015-Jan-27 09:50 260 31 5.0
2015-Jan-27 09:20 260 29 5.4 3.0
2015-Jan-27 08:50 260 26 4.0
2015-Jan-27 08:20 270 23 4.0
2015-Jan-27 07:50 280 20 4.0
2015-Jan-27 07:20 290 27 5.0
2015-Jan-27 06:50 210 22 4.0
2015-Jan-27 06:20 180 13 5.4 3.0 Light rain showers.
2015-Jan-27 05:50 200 16 3.0
2015-Jan-27 05:20 230 19 3.0
2015-Jan-27 04:50 230 27 3.0
2015-Jan-27 04:20 240 25 5.0
2015-Jan-27 03:50 250 24 4.0
2015-Jan-27 03:20 260 29 4.0
2015-Jan-27 02:50 250 20 4.0
2015-Jan-27 02:20 260 30 gusting 41 3.0
2015-Jan-27 01:50 260 38 3.0
2015-Jan-27 01:20 270 25 4.0
2015-Jan-27 00:50 260 23 2.0
2015-Jan-27 00:20 250 31 3.0
2015-Jan-26 23:50 270 25 4.0
2015-Jan-26 23:20 270 20 4.0
2015-Jan-26 22:50 280 29 3.0
2015-Jan-26 22:20 280 29 4.0
2015-Jan-26 21:50 280 20 4.0
2015-Jan-26 21:20 290 27 5.0
2015-Jan-26 20:50 280 27 5.0
2015-Jan-26 20:20 270 27 4.0
2015-Jan-26 19:50 290 27 4.0
2015-Jan-26 19:20 240 17 gusting 27 3.0
2015-Jan-26 18:50 260 27 5.0
2015-Jan-26 18:20 260 29 5.0
2015-Jan-26 17:50 260 30 5.0
2015-Jan-26 17:20 260 27 gusting 38 5.0
2015-Jan-26 16:50 240 23 5.0
2015-Jan-26 16:20 250 24 5.0
2015-Jan-26 15:50 260 29 5.0
2015-Jan-26 15:20 240 27 5.4 5.0 Showers in the vicinity.
2015-Jan-26 14:50 230 27 5.0
2015-Jan-26 14:20 240 34 5.0
2015-Jan-26 13:50 240 27 5.0
2015-Jan-26 13:20 240 30 6.0
2015-Jan-26 12:50 250 30 6.0
2015-Jan-26 12:20 240 24 5.4 6.0 Showers in the vicinity.
2015-Jan-26 11:50 230 31 6.0
2015-Jan-26 11:20 230 29 6.0
2015-Jan-26 10:50 230 27 6.0
2015-Jan-26 10:20 240 29 6.0
2015-Jan-26 09:40 240 30 5.4 6.0
2015-Jan-26 09:20 250 33 6.0
2015-Jan-26 08:50 240 35 6.0
2015-Jan-26 08:20 250 39 6.0
2015-Jan-26 07:50 230 33 6.0
2015-Jan-26 07:20 250 36 5.0
2015-Jan-26 06:50 240 33 6.0
2015-Jan-26 06:10 240 34 5.4 7.0
2015-Jan-26 05:50 230 27 6.0
2015-Jan-26 05:20 230 39 gusting 54 6.0
2015-Jan-26 04:50 230 34 7.0
2015-Jan-26 04:20 230 31 7.0
2015-Jan-26 03:50 230 38 7.0
2015-Jan-26 03:20 220 30 8.0
2015-Jan-26 02:50 230 31 8.0
2015-Jan-26 02:20 230 33 8.0
2015-Jan-26 01:50 220 35 8.0
2015-Jan-26 01:20 230 34 8.0
2015-Jan-26 00:50 220 34 8.0
2015-Jan-26 00:20 220 34 8.0
2015-Jan-25 23:50 220 33 8.0
2015-Jan-25 23:20 220 37 7.0
2015-Jan-25 22:50 220 50 8.0
2015-Jan-25 22:20 210 47 gusting 58 8.0
2015-Jan-25 21:50 200 50 8.0
2015-Jan-25 21:20 200 47 7.0
2015-Jan-25 20:50 200 47 gusting 58 8.0
2015-Jan-25 20:20 200 43 8.0
2015-Jan-25 19:50 190 39 7.0
2015-Jan-25 19:20 190 36 7.0
2015-Jan-25 18:50 170 32 5.0
2015-Jan-25 18:20 170 31 5.0
2015-Jan-25 17:50 170 34 4.0
2015-Jan-25 17:20 170 35 4.0
2015-Jan-25 16:50 170 36 4.0
2015-Jan-25 16:20 170 36 3.0